FW9535 Weather Reports


time (UTC)temp
C
wind
direction
speed
KPH
gust
KPH
rain 1hr
cm
rain 24hr
cm
rain mn
cm
humidity
%
barometer
mb
20260902021639 27 188 8.0 14.5 0.00 0.00 0.00 37 1011.7
20260902020137 28 204 8.0 11.3 0.00 0.00 0.00 38 1012.3
20260902014636 27 310 4.8 4.8 0.00 0.00 0.00 39 1012.4
20260902013133 26 210 6.4 9.7 0.00 0.00 0.00 42 1012.8
20260902011631 27 279 3.2 4.8 0.00 0.00 0.00 42 1012.9
20260902010126 26 232 6.4 8.0 0.00 0.00 0.00 42 1013.1
20260902004625 27 269 8.0 11.3 0.00 0.00 0.00 42 1013.4
20260902003123 26 303 3.2 3.2 0.00 0.00 0.00 43 1013.4
20260902001619 26 230 4.8 8.0 0.00 0.00 0.00 45 1013.5
20260902000116 26 246 3.2 3.2 0.00 0.00 0.00 44 1013.7
20260901234616 25 264 8.0 14.5 0.00 0.00 0.00 46 1014.2
20260901233114 25 194 8.0 14.5 0.00 0.00 0.00 47 1014.0
20260901231612 24 225 8.0 12.9 0.00 0.00 0.00 46 1014.5
20260901230109 23 210 6.4 8.0 0.00 0.00 0.00 48 1014.6
20260901224606 23 267 3.2 4.8 0.00 0.00 0.00 49 1014.7
20260901223104 23 238 3.2 3.2 0.00 0.00 0.00 50 1014.9
20260901221603 22 141 4.8 4.8 0.00 0.00 0.00 51 1014.7
20260901214600 18 287 0.0 0.0 0.00 0.00 0.00 64 1014.4
20260901213055 20 290 0.0 0.0 0.00 0.00 0.00 58 1014.2
20260901211552 17 261 1.6 3.2 0.00 0.00 0.00 63 1014.2
20260901210052 17 300 0.0 0.0 0.00 0.00 0.00 65 1014.3
20260901204549 17 291 0.0 0.0 0.00 0.00 0.00 63 1014.1
20260901203045 17 284 0.0 0.0 0.00 0.00 0.00 63 1014.4
20260901201542 18 253 1.6 3.2 0.00 0.00 0.00 59 1014.2
20260901200041 19 289 1.6 1.6 0.00 0.00 0.00 56 1014.2
20260901194540 18 245 1.6 3.2 0.00 0.00 0.00 59 1014.3
20260901193037 18 262 1.6 3.2 0.00 0.00 0.00 61 1014.3
20260901191535 17 322 1.6 1.6 0.00 0.00 0.00 63 1014.0
20260901190031 18 296 0.0 1.6 0.00 0.00 0.00 61 1014.4
20260901184531 18 192 4.8 8.0 0.00 0.00 0.00 60 1014.6
20260901183028 19 216 3.2 3.2 0.00 0.00 0.00 57 1014.2
20260901181523 20 231 4.8 8.0 0.00 0.00 0.00 55 1013.9
20260901180022 21 196 8.0 9.7 0.00 0.00 0.00 49 1014.2
20260901174518 19 266 4.8 8.0 0.00 0.00 0.00 52 1013.6
20260901173016 18 302 1.6 1.6 0.00 0.00 0.00 55 1013.4
20260901171514 18 273 1.6 1.6 0.00 0.00 0.00 60 1013.2
20260901170014 20 194 4.8 4.8 0.00 0.00 0.00 51 1013.2
20260901164511 18 218 1.6 3.2 0.00 0.00 0.00 54 1013.3
20260901163006 18 269 1.6 1.6 0.00 0.00 0.00 57 1013.4
20260901161506 18 265 1.6 1.6 0.00 0.00 0.00 54 1013.9
20260901160001 20 322 3.2 3.2 0.00 0.00 0.00 51 1014.0
20260901154457 18 279 1.6 1.6 0.00 0.00 0.00 53 1014.0
20260901152952 18 302 1.6 3.2 0.00 0.00 0.00 56 1014.2
20260901151447 17 181 4.8 4.8 0.00 0.00 0.00 61 1014.4
20260901145942 16 300 0.0 0.0 0.00 0.00 0.00 64 1014.8
20260901144438 18 292 4.8 4.8 0.00 0.00 0.00 57 1014.8
20260901142937 19 228 4.8 4.8 0.00 0.00 0.00 56 1015.1
20260901141433 20 276 1.6 1.6 0.00 0.00 0.00 54 1015.1
20260901135932 18 211 8.0 11.3 0.00 0.00 0.00 54 1015.1
20260901134430 18 234 3.2 3.2 0.00 0.00 0.00 59 1015.1
20260901132927 18 231 4.8 4.8 0.00 0.00 0.00 60 1015.5
20260901131427 18 288 0.0 1.6 0.00 0.00 0.00 58 1015.3
20260901125926 20 208 4.8 4.8 0.00 0.00 0.00 52 1015.6
20260901124422 19 292 0.0 0.0 0.00 0.00 0.00 56 1015.4
20260901122921 20 295 0.0 1.6 0.00 0.00 0.00 55 1015.8
20260901121417 18 295 1.6 1.6 0.00 0.00 0.00 59 1015.8
20260901115912 18 320 1.6 1.6 0.00 0.03 0.03 60 1015.8
20260901114411 18 307 1.6 1.6 0.00 0.03 0.03 61 1016.4
20260901112910 17 273 1.6 1.6 0.00 0.03 0.03 61 1016.6
20260901111409 18 294 1.6 1.6 0.00 0.03 0.03 59 1016.4
20260901105906 17 296 0.0 0.0 0.00 0.03 0.03 60 1016.2
20260901104404 18 283 1.6 1.6 0.00 0.03 0.03 56 1016.5
20260901102900 20 279 3.2 3.2 0.00 0.03 0.03 54 1016.9
20260901101356 18 286 1.6 1.6 0.00 0.03 0.03 57 1017.0
20260901095856 18 277 3.2 3.2 0.00 0.03 0.03 57 1017.3
20260901094354 17 278 1.6 1.6 0.00 0.03 0.03 58 1017.2
20260901092850 19 302 0.0 0.0 0.00 0.03 0.03 54 1017.3
20260901091347 19 298 3.2 4.8 0.00 0.03 0.03 53 1017.3
20260901085844 20 296 1.6 3.2 0.00 0.03 0.03 50 1017.3
20260901084343 21 213 3.2 3.2 0.00 0.03 0.03 47 1017.0
20260901082842 21 206 6.4 9.7 0.00 0.03 0.03 45 1017.0
20260901081339 20 287 0.0 0.0 0.00 0.03 0.03 50 1017.2
20260901075839 21 291 3.2 3.2 0.00 0.03 0.03 46 1017.1
20260901074336 21 246 1.6 3.2 0.00 0.03 0.03 45 1017.0
20260901072834 22 232 1.6 3.2 0.00 0.03 0.03 44 1017.0
20260901071333 23 280 3.2 4.8 0.00 0.03 0.03 40 1017.1
20260901065833 24 294 1.6 1.6 0.00 0.03 0.03 40 1017.0
20260901064331 25 213 3.2 4.8 0.00 0.03 0.03 38 1016.8
20260901062831 26 234 3.2 4.8 0.00 0.03 0.03 36 1016.5
20260901061330 26 299 0.0 1.6 0.00 0.03 0.03 35 1016.7
20260901055826 26 285 1.6 3.2 0.00 0.03 0.03 34 1016.7
20260901054322 26 187 4.8 8.0 0.00 0.03 0.03 33 1016.9
20260901052820 27 198 6.4 11.3 0.00 0.03 0.03 33 1017.1
20260901051316 27 141 4.8 8.0 0.00 0.03 0.03 33 1016.8
20260901045813 27 236 3.2 3.2 0.00 0.03 0.03 33 1017.3
20260901044310 27 244 8.0 11.3 0.00 0.03 0.03 32 1017.2
20260901042806 28 298 3.2 3.2 0.00 0.03 0.03 32 1017.2
20260901041303 27 309 6.4 9.7 0.00 0.03 0.03 30 1017.4
20260901035802 28 254 4.8 8.0 0.00 0.03 0.03 32 1017.3
20260901034301 27 214 6.4 9.7 0.00 0.03 0.03 31 1017.6
20260901032759 27 219 9.7 12.9 0.00 0.03 0.03 31 1018.1
20260901031256 27 195 4.8 8.0 0.00 0.03 0.03 32 1018.2
20260901025756 27 276 9.7 11.3 0.00 0.03 0.03 30 1018.6
20260901024256 28 347 8.0 12.9 0.00 0.03 0.03 30 1018.8
20260901022751 27 319 6.4 12.9 0.00 0.03 0.03 31 1019.3